Weather History for Dyersburg, TN

Change the Weather History Date:

Sunday, July 22, 2012

  Actual Average Record
Temperature  
Mean Temperature 83 °F -  
Max Temperature 93 °F 86 °F 96 °F (2005)
Min Temperature 73 °F 69 °F 60 °F (2007)
Cooling Degree Days 18    
Growing Degree Days 33 (Base 50)    
Moisture  
Dew Point 69 °F    
Average Humidity 63    
Maximum Humidity 78    
Minimum Humidity 46    
Precipitation  
Precipitation 0.00 in - - ()
Sea Level Pressure  
Sea Level Pressure 30.08 in    
Wind  
Wind Speed 4 mph (SE)    
Max Wind Speed 15 mph    
Max Gust Speed 20 mph    
Visibility 9 miles    
Events      
Averages and records for this station are not official NWS values.
T = Trace of Precipitation, MM = Missing Value Source: NWS Daily Summary

Daily Weather History Graph

Daily Weather History Graph

Search for Another Location

Airport:

Trip Planner

Search our weather history database for the weather conditions in past years. The results will help you decide how hot, cold, wet, or windy it might be!

Date:

Astronomy

Jul. 22, 2012 Rise Set
Actual Time 5:57 AM CDT 8:10 PM CDT
Civil Twilight 5:28 AM CDT 8:38 PM CDT
Nautical Twilight 4:53 AM CDT 9:14 PM CDT
Astronomical Twilight 4:14 AM CDT 9:52 PM CDT
Moon 9:34 AM CDT (7/22) 10:03 PM CDT (7/22)
Length of Visible Light 15h 10m
Length of Day
14h 12m
Waxing Crescent, 13% of the Moon is Illuminated
Jul 22
Waxing Crescent
Jul 26
First Quarter
Aug 1
Full
Aug 9
Last Quarter
Aug 17
New

Hourly Weather History & Observations

Time (CDT) Temp. Heat Index Dew Point Humidity Pressure Visibility Wind Dir Wind Speed Gust Speed Precip Events Conditions
12:15 AM 78.8 °F - 66.2 °F 65% 30.03 in 10.0 mi East 4.6 mph - N/A   Clear
12:35 AM 78.8 °F - 66.2 °F 65% 30.03 in 10.0 mi East 4.6 mph - N/A   Clear
12:55 AM 77.0 °F - 66.2 °F 69% 30.03 in 10.0 mi ENE 4.6 mph - N/A   Clear
1:15 AM 77.0 °F - 66.2 °F 69% 30.03 in 10.0 mi ENE 3.5 mph - N/A   Clear
1:35 AM 77.0 °F - 66.2 °F 69% 30.03 in 10.0 mi East 3.5 mph - N/A   Clear
1:55 AM 77.0 °F - 66.2 °F 69% 30.03 in 10.0 mi East 3.5 mph - N/A   Clear
2:15 AM 75.2 °F - 66.2 °F 73% 30.03 in 10.0 mi East 3.5 mph - N/A   Clear
2:35 AM 75.2 °F - 66.2 °F 73% 30.03 in 10.0 mi East 4.6 mph - N/A   Clear
2:55 AM 75.2 °F - 66.2 °F 73% 30.04 in 10.0 mi Calm Calm - N/A   Clear
3:15 AM 75.2 °F - 66.2 °F 73% 30.04 in 10.0 mi ENE 4.6 mph - N/A   Clear
3:35 AM 75.2 °F - 66.2 °F 73% 30.04 in 10.0 mi ENE 4.6 mph - N/A   Scattered Clouds
3:55 AM 75.2 °F - 66.2 °F 73% 30.05 in 10.0 mi ENE 3.5 mph - N/A   Mostly Cloudy
4:15 AM 75.2 °F - 66.2 °F 73% 30.04 in 10.0 mi ENE 3.5 mph - N/A   Clear
4:35 AM 73.4 °F - 66.2 °F 78% 30.05 in 10.0 mi ENE 3.5 mph - N/A   Clear
4:55 AM 73.4 °F - 66.2 °F 78% 30.05 in 10.0 mi ENE 3.5 mph - N/A   Partly Cloudy
5:15 AM 73.4 °F - 64.4 °F 73% 30.05 in 8.0 mi Calm Calm - N/A   Partly Cloudy
5:35 AM 73.4 °F - 66.2 °F 78% 30.06 in 7.0 mi East 3.5 mph - N/A   Clear
5:55 AM 73.4 °F - 66.2 °F 78% 30.06 in 5.0 mi NE 4.6 mph - N/A   Clear
6:15 AM 73.4 °F - 66.2 °F 78% 30.07 in 5.0 mi ENE 3.5 mph - N/A   Clear
6:35 AM 73.4 °F - 66.2 °F 78% 30.08 in 5.0 mi East 3.5 mph - N/A   Scattered Clouds
6:55 AM 75.2 °F - 66.2 °F 73% 30.08 in 5.0 mi East 4.6 mph - N/A   Partly Cloudy
7:15 AM 75.2 °F - 68.0 °F 78% 30.08 in 5.0 mi ESE 3.5 mph - N/A   Clear
7:35 AM 77.0 °F - 69.8 °F 78% 30.09 in 5.0 mi SE 4.6 mph - N/A   Clear
7:55 AM 78.8 °F - 69.8 °F 74% 30.10 in 9.0 mi SE 3.5 mph - N/A   Clear
8:15 AM 80.6 °F 83.9 °F 69.8 °F 70% 30.10 in 10.0 mi South 3.5 mph - N/A   Clear
8:35 AM 82.4 °F 86.3 °F 69.8 °F 66% 30.10 in 10.0 mi South 5.8 mph - N/A   Clear
8:55 AM 82.4 °F 86.3 °F 69.8 °F 66% 30.10 in 10.0 mi South 4.6 mph - N/A   Clear
9:15 AM 84.2 °F 88.4 °F 69.8 °F 62% 30.11 in 10.0 mi SSE 5.8 mph - N/A   Clear
9:35 AM 86.0 °F 91.8 °F 71.6 °F 62% 30.11 in 10.0 mi South 5.8 mph - N/A   Clear
10:15 AM 86.0 °F 91.8 °F 71.6 °F 62% 30.11 in 10.0 mi ESE 3.5 mph - N/A   Partly Cloudy
10:35 AM 87.8 °F 93.8 °F 71.6 °F 58% 30.11 in 10.0 mi SSW 3.5 mph - N/A   Partly Cloudy
10:55 AM 89.6 °F 96.2 °F 71.6 °F 55% 30.11 in 7.0 mi SSE 8.1 mph - N/A   Scattered Clouds
11:15 AM 91.4 °F 98.4 °F 71.6 °F 52% 30.11 in 10.0 mi SSW 5.8 mph - N/A   Mostly Cloudy
11:35 AM 89.6 °F 93.4 °F 68.0 °F 49% 30.10 in 10.0 mi Calm Calm - N/A   Partly Cloudy
11:55 AM 89.6 °F 94.7 °F 69.8 °F 52% 30.10 in 10.0 mi ESE 5.8 mph - N/A   Clear
12:15 PM 89.6 °F 94.7 °F 69.8 °F 52% 30.10 in 9.0 mi SE 4.6 mph - N/A   Clear
12:35 PM 89.6 °F 94.7 °F 69.8 °F 52% 30.10 in 10.0 mi SE 6.9 mph - N/A   Clear
12:55 PM 87.8 °F 92.6 °F 69.8 °F 55% 30.10 in 10.0 mi East 3.5 mph - N/A   Scattered Clouds
1:15 PM 91.4 °F 96.8 °F 69.8 °F 49% 30.09 in 10.0 mi SSE 3.5 mph - N/A   Partly Cloudy
1:35 PM 93.2 °F 98.8 °F 69.8 °F 46% 30.08 in 8.0 mi South 4.6 mph - N/A   Partly Cloudy
1:55 PM 91.4 °F 96.8 °F 69.8 °F 49% 30.07 in 4.0 mi ESE 6.9 mph - N/A   Scattered Clouds
2:15 PM 93.2 °F 98.8 °F 69.8 °F 46% 30.08 in 10.0 mi East 5.8 mph - N/A   Mostly Cloudy
2:35 PM 93.2 °F 98.8 °F 69.8 °F 46% 30.08 in 10.0 mi SE 5.8 mph - N/A   Scattered Clouds
2:55 PM 93.2 °F 98.8 °F 69.8 °F 46% 30.07 in 8.0 mi East 6.9 mph - N/A   Scattered Clouds
3:15 PM 91.4 °F 96.8 °F 69.8 °F 49% 30.06 in 10.0 mi SE 8.1 mph - N/A   Mostly Cloudy
3:35 PM 93.2 °F 98.8 °F 69.8 °F 46% 30.06 in 10.0 mi SE 4.6 mph - N/A   Scattered Clouds
3:55 PM 93.2 °F 98.8 °F 69.8 °F 46% 30.06 in 10.0 mi ESE 6.9 mph - N/A   Partly Cloudy
4:15 PM 89.6 °F 94.7 °F 69.8 °F 52% 30.07 in 10.0 mi SE 15.0 mph 19.6 mph N/A   Partly Cloudy
4:35 PM 89.6 °F 94.7 °F 69.8 °F 52% 30.07 in 10.0 mi South 11.5 mph 19.6 mph N/A   Partly Cloudy
4:55 PM 87.8 °F 92.6 °F 69.8 °F 55% 30.07 in 10.0 mi SSE 10.4 mph 16.1 mph N/A   Scattered Clouds
5:15 PM 87.8 °F 92.6 °F 69.8 °F 55% 30.07 in 10.0 mi SSE 4.6 mph - N/A   Partly Cloudy
5:35 PM 87.8 °F 91.4 °F 68.0 °F 52% 30.06 in 10.0 mi SE 5.8 mph - N/A   Clear
5:55 PM 89.6 °F 94.7 °F 69.8 °F 52% 30.06 in 10.0 mi South 4.6 mph - N/A   Clear
6:15 PM 87.8 °F 91.4 °F 68.0 °F 52% 30.06 in 10.0 mi South 8.1 mph - N/A   Clear
6:35 PM 89.6 °F 94.7 °F 69.8 °F 52% 30.06 in 10.0 mi South 4.6 mph - N/A   Clear
6:55 PM 87.8 °F 92.6 °F 69.8 °F 55% 30.07 in 10.0 mi South 5.8 mph - N/A   Clear
7:15 PM 87.8 °F 92.6 °F 69.8 °F 55% 30.07 in 9.0 mi SSW 6.9 mph - N/A   Clear
7:35 PM 87.8 °F 92.6 °F 69.8 °F 55% 30.07 in 5.0 mi SSW 3.5 mph - N/A   Clear
7:55 PM 86.0 °F 90.4 °F 69.8 °F 58% 30.08 in 8.0 mi Calm Calm - N/A   Clear
8:15 PM 84.2 °F 88.4 °F 69.8 °F 62% 30.08 in 10.0 mi SSE 3.5 mph - N/A   Clear
8:35 PM 82.4 °F 86.3 °F 69.8 °F 66% 30.08 in 10.0 mi Calm Calm - N/A   Clear
8:55 PM 82.4 °F 86.3 °F 69.8 °F 66% 30.09 in 10.0 mi Calm Calm - N/A   Clear
9:15 PM 80.6 °F 83.9 °F 69.8 °F 70% 30.10 in 10.0 mi Calm Calm - N/A   Clear
9:35 PM 80.6 °F 83.9 °F 69.8 °F 70% 30.11 in 10.0 mi Calm Calm - N/A   Clear
9:55 PM 78.8 °F - 69.8 °F 74% 30.11 in 10.0 mi Calm Calm - N/A   Clear
10:15 PM 78.8 °F - 69.8 °F 74% 30.12 in 10.0 mi Calm Calm - N/A   Clear
10:35 PM 78.8 °F - 69.8 °F 74% 30.12 in 10.0 mi Calm Calm - N/A   Clear
10:55 PM 78.8 °F - 68.0 °F 69% 30.12 in 5.0 mi Calm Calm - N/A   Clear
11:35 PM 77.0 °F - 68.0 °F 74% 30.12 in 10.0 mi South 4.6 mph - N/A   Clear
11:55 PM 78.8 °F - 69.8 °F 74% 30.12 in 10.0 mi South 3.5 mph - N/A   Clear